Regional Weather Roundup
Issued by NWS

Home | Current Version | Previous Version | Graphics & Text | Print | Product List | Glossary On
Versions: 1 2 3 4 5 6 7 8 9 10 11 12 13 14 15 16 17 18 19 20 21 22 23 24 25 26 27
000
ASUS45 KPSR 161810
RWRAZ

ARIZONA HOURLY REGIONAL WEATHER ROUNDUP
NATIONAL WEATHER SERVICE PHOENIX AZ
1100 AM MST TUE JAN 16 2018

NOTE: FAIR INDICATES FEW OR NO CLOUDS BELOW 12,000 FEET WITH NO
SIGNIFICANT WEATHER AND/OR OBSTRUCTIONS TO VISIBILITY.

AZZ001>003-036-161900-
NORTHWEST ARIZONA

CITY           SKY/WX    TMP DP  RH WIND       PRES   REMARKS
BULLHEAD CITY  MOSUNNY   59  41  51 SW3       30.19S
KINGMAN        MOSUNNY   55  31  39 N5        30.23S
6HR MIN TEMP:  36; 6HR MAX TEMP:  56;

$$

AZZ004>008-015-016-018-161900-
NORTH CENTRAL ARIZONA

CITY           SKY/WX    TMP DP  RH WIND       PRES   REMARKS
GRAND CANYON   MOSUNNY   45  21  38 E10       30.35R
6HR MIN TEMP:  36; 6HR MAX TEMP:  45;

WILLIAMS       MOSUNNY   50  18  27 SE7       30.31R
PRESCOTT       SUNNY     51  26  37 CALM      30.29S
6HR MIN TEMP:  34; 6HR MAX TEMP:  51;

FLAGSTAFF      SUNNY     43  23  45 E9        30.34S
6HR MIN TEMP:  23; 6HR MAX TEMP:  43;

PAYSON         SUNNY     52  23  32 VRB6G12   30.31S
PAGE           SUNNY     46  25  43 VRB3      30.39R
6HR MIN TEMP:  35; 6HR MAX TEMP:  46;

$$

AZZ009>014-017-161900-
NORTHEAST ARIZONA

CITY           SKY/WX    TMP DP  RH WIND       PRES   REMARKS
WINSLOW        SUNNY     43  23  45 E3        30.37F
6HR MIN TEMP:  25; 6HR MAX TEMP:  43;

SAINT JOHNS    MOSUNNY   42  24  49 N5        30.34R
6HR MIN TEMP:  24; 6HR MAX TEMP:  43;

WINDOW ROCK    SUNNY     38  24  57 SW5       30.37S WCI  34
6HR MIN TEMP:  17; 6HR MAX TEMP:  38;

SHOW LOW       SUNNY     41  25  52 W6        30.36R
$$

AZZ540-542>544-546-548-161900-
GREATER PHOENIX AREA

CITY           SKY/WX    TMP DP  RH WIND       PRES   REMARKS
PHOENIX        MOSUNNY   67  34  29 SE8       30.17S
6HR MIN TEMP:  51; 6HR MAX TEMP:  67;

BUCKEYE        SUNNY     59  43  55 SE5       30.19R
GLENDALE       MOSUNNY   64  37  36 CALM      30.20R
LUKE AFB       MOSUNNY   64  37  36 E3        30.17R
6HR MIN TEMP:  47; 6HR MAX TEMP:  64; 6HR PCP: TRACE;

DEER VALLEY    SUNNY     65  30  27 S6        30.18R
6HR MIN TEMP:  50; 6HR MAX TEMP:  65;

SCOTTSDALE     SUNNY     67  32  27 CALM      30.20R
6HR MIN TEMP:  50; 6HR MAX TEMP:  67;

MESA-GATEWAY   MOSUNNY   63  34  34 VRB5      30.20R
CHANDLER       PTSUNNY   63  37  39 N6        30.19S
$$

AZZ539-553-161900-
SOUTHWEST MARICOPA COUNTY AND PINAL COUNTY

CITY           SKY/WX    TMP DP  RH WIND       PRES   REMARKS
CASA GRANDE    NOT AVBL
GILA BEND      PTSUNNY   63  35  35 CALM      30.16R
6HR MIN TEMP:  47; 6HR MAX TEMP:  63;

$$

AZZ503-504-507>509-161900-
SOUTHEAST ARIZONA

CITY           SKY/WX    TMP DP  RH WIND       PRES   REMARKS
TUCSON         MOSUNNY   66  23  19 SE18G25   30.21R
6HR MIN TEMP:  50; 6HR MAX TEMP:  66;

DAVIS-MONTHAN  SUNNY     65  23  20 E9        30.19S
6HR MIN TEMP:  51; 6HR MAX TEMP:  65;

RYAN FIELD     SUNNY     63  21  20 MISG      30.20R
NOGALES        SUNNY     66  20  17 VRB5      30.20S
6HR MIN TEMP:  41; 6HR MAX TEMP:  67;

SIERRA VISTA   CLOUDY    56  21  26 E7        30.29S
6HR MIN TEMP:  40; 6HR MAX TEMP:  56;

DOUGLAS        SUNNY     50  23  34 E13       30.31R
6HR MIN TEMP:  33; 6HR MAX TEMP:  50;

SAFFORD        SUNNY     47  20  34 S15       30.41R
6HR MIN TEMP:  40; 6HR MAX TEMP:  47;

$$

AZZ532-161900-
SOUTHWEST ARIZONA

CITY           SKY/WX    TMP DP  RH WIND       PRES   REMARKS
YUMA           NOT AVBL
$$

CAZ041-043-047-048-061-525>527-560>570-161900-
SOUTHERN CALIFORNIA

CITY           SKY/WX    TMP DP  RH WIND       PRES   REMARKS
DOWNTOWN L.A.  PTSUNNY   60  49  66 W3        30.17R
6HR MIN TEMP:  52; 6HR MAX TEMP:  61;

L.A. AIRPORT   PTSUNNY   62  58  86 NW5       30.17R HAZE
6HR MIN TEMP:  54; 6HR MAX TEMP:  62;

SAN DIEGO      PTSUNNY   61  52  72 CALM      30.16F
6HR MIN TEMP:  54; 6HR MAX TEMP:  62;

BURBANK        PTSUNNY   61  44  53 N5        30.18R
6HR MIN TEMP:  51; 6HR MAX TEMP:  61;

ONTARIO        CLOUDY    62  39  42 CALM      30.15S
6HR MIN TEMP:  50; 6HR MAX TEMP:  62;

RIVERSIDE      CLOUDY    59  46  62 W6        30.16R
6HR MIN TEMP:  48; 6HR MAX TEMP:  59;

PALM SPRINGS   MOSUNNY   68  43  40 CALM      30.16R
6HR MIN TEMP:  55; 6HR MAX TEMP:  69;

IMPERIAL       MOSUNNY   65  39  38 CALM      30.14R
6HR MIN TEMP:  47; 6HR MAX TEMP:  65;

BLYTHE         CLOUDY    62  38  40 CALM      30.16S
6HR MIN TEMP:  45; 6HR MAX TEMP:  62;

NEEDLES        PTSUNNY   65  38  36 N7        30.19R
6HR MIN TEMP:  51; 6HR MAX TEMP:  65;

$$

NVZ020-UTZ003-161900-
SOUTHERN NEVADA-UTAH

CITY           SKY/WX    TMP DP  RH WIND       PRES   REMARKS
LAS VEGAS      PTSUNNY   59  36  42 CALM      30.23R
6HR MIN TEMP:  49; 6HR MAX TEMP:  59;

SALT LAKE CITY MOSUNNY   44  22  41 SE6       30.33S
6HR MIN TEMP:  32; 6HR MAX TEMP:  44;

$$

NMZ009-TXZ055-161900-
NEW MEXICO-WEST TEXAS

CITY           SKY/WX    TMP DP  RH WIND       PRES   REMARKS
ALBUQUERQUE    CLOUDY    29  16  58 NE3       30.51S
6HR MIN TEMP:  25; 6HR MAX TEMP:  30;

EL PASO        CLOUDY    33   2  26 E10       30.54F WCI  25
6HR MIN TEMP:  27; 6HR MAX TEMP:  34;

$$


........................KEY........................
SKY/WX - SKY CONDITION/WEATHER
TMP    - TEMPERATURE IN FAHRENHEIT
DP     - DEW POINT IN FAHRENHEIT
RH     - RELATIVE HUMIDITY IN PERCENT
WIND   - DIRECTION AND SPEED IN MILES PER HOUR (MPH)
VRB    - VARIABLE WIND DIRECTION
PRES   - MEAN SEA LEVEL PRESSURE IN INCHES OF MERCURY
         F - FALLING PRESSURE   R - RISING PRESSURE
         S - STEADY PRESSURE
VSB    - VISIBILITY IN MILES
HX     - HEAT INDEX IN FAHRENHEIT
WCI    - WIND CHILL INDEX IN FAHRENHEIT
TC     - TEMPERATURE IN CELSIUS WHICH IS ALSO KNOWN AS
         TEMPERATURE IN CENTIGRADE
AFB    - AIR FORCE BASE
         LUKE AFB IS LUKE AIR FORCE BASE
         DAVIS-MONTHAN IS DAVIS-MONTHAN AIR FORCE BASE
NAS    - NAVAL AIR STATION
         EL CENTRO NAS IS EL CENTRO NAVAL AIR STATION
N/A    - NOT AVAILABLE





USA.gov is the U.S. government's official web portal to all federal, state and local government web resources and services.